Back to catalog

STARLINK-30154

AliveCommunicationsVLEO
NORAD 57495·PAYLOAD·🇺🇸 United States

Launched Aug 7, 2023 from Cape Canaveral Space Force Station

Loading…

Next Passes (next 24 hours)

TLE

FreshSource: CelesTrak SupGP

Epoch: Sep 14, 2026, 14:36 UTC

1 57495C 23113A   26257.60881944 -.00042740  00000+0 -15483-2 0  2570
2 57495  43.0043  28.9767 0002050 271.7521 313.4311 15.27594001    18

Track STARLINK-30154 in real time with AllMySat

Download on the App Store